Location: Ford County Road and Bridge Department
(37.7686°N, 99.9762°W)
Time: 05:27:50
(UTC+00:00)

Timation 2 Rocket - Pass Details

Date: 18 January 2020
Orbit: 904 x 1077 km, 70.0° (Epoch: 19 February)

Event Time Altitude Azimuth Distance (km) Brightness Sun altitude
Rises 00:24:29 0° 197° (SSW) 3,519 7.5 -7.7°
Reaches altitude 10° 00:26:56 10° 195° (SSW) 2,591 6.8 -8.2°
Maximum altitude 00:32:54 76° 111° (ESE) 960 3.9 -9.3°
Drops below altitude 10° 00:39:07 10° 27° (NNE) 2,694 5.9 -10.4°
Enters shadow 00:41:28 - 26° (NNE) 3,581 6.5 -10.9°
